{"data":{"norad_id":57082,"intl_designator":"2023-088AL","name":"STARLINK-6248","alt_names":[],"object_type":"PAYLOAD","status":"ACTIVE","operator":null,"country":"US","launch_date":"2023-06-22","launch_site_code":"AFWTR","launch_vehicle":null,"mission":null,"orbit_class":"UNKNOWN","rcs_meters":null,"size_class":null,"mass_kg":null,"dimensions":null,"purposes":["comms"],"wikipedia_slug":null,"has_3d_model":false,"image_url":null,"decayed_at":null,"tle_current":{"epoch":"2026-05-25T01:22:35.154048Z","epoch_age_seconds":66300,"freshness":"FRESH","line1":"1 57082U 23088AL  26145.05735132  .00002327  00000+0  94029-4 0  9998","line2":"2 57082  43.0058  24.5131 0001551 285.9357  74.1323 15.27591449162186","mean_motion":15.27591449,"eccentricity":0.0001551,"inclination_deg":43.0058,"raan_deg":24.5131,"arg_perigee_deg":285.9357,"mean_anomaly_deg":74.1323,"bstar":9.4029e-5,"rev_number":16218,"period_min":94.266042202754,"perigee_km":481.95064918269,"apogee_km":484.07897847534,"semimajor_km":6861.151813829,"source":"CELESTRAK","updated_at":"2026-05-25T13:38:18.215823Z"}}}